Location: Cabeza de los Veneras
(40.2000°N, 5.2000°W)
Time: 02:16:09
(UTC+00:00)

CZ-4C R/B - Pass Details

Date: 18 April 2024
Orbit: 446 x 583 km, 98.0° (Epoch: 25 May)

Event Time Altitude Azimuth Distance (km) Brightness Sun altitude
Rises 20:57:36 0° 7° (N) 2,478 7.1 -20.5°
Reaches altitude 10° 20:59:42 10° 1° (N) 1,589 6.1 -20.8°
Maximum altitude 21:02:58 48° 286° (WNW) 590 3.8 -21.3°
Enters shadow 21:04:38 25° 223° (SW) 953 4.5 -21.6°
